National Weather Service United States Department of Commerce

Accumulating Snow Today through Tonight

Accumulating snow is expected today into tonight, with locally heavy snow likely near Lake Michigan. Read More >

Observations from across/near northern Michigan

Marine Observations

Michigan Hourly Observations

 

Yesterday's high, low and precipitation reports from across northern Michigan

Northern Michigan Temperatures and Precipitation

 

Observation Text Products


000
SXUS83 KAPX 241108
OMRAPX

Marine Observations
National Weather Service Gaylord MI
608 AM EST Mon Jan 24 2022

WIND DATA (KTS) WAVES WATER
SITE DATE/TIME DIR SPEED GUST (FT) TEMP(F) SITE NAME
-------------------------------------------------------------

Lake Superior/St Marys River

GRMM4 241040Z 220 9 12 Grand Marais
WFPM4 241040Z 240 6 12 Whitefish Point
PTIM4 241030Z 180 3 5 Point Iroquois
KANJ 241055Z CALM Sault Ste Marie
SWPM4 241030Z 120 3 33 S.W. Pier
LTRM4 241030Z 70 3 4 Little Rapids
RCKM4 241030Z CALM 2 Rock Cut
WNEM4 241030Z CALM West Nebish Island

Lake Huron

DTLM4 241030Z 250 6 12 35 DeTour Village
KDRM 241022Z 220 5 Drummond Island
KMCD 241055Z 200 4 Mackinac Island
MACM4 241030Z 180 4 5 33 Mackinac City
KSLH 241055Z 210 4 Cheboygan Airport
CYGM4 240950Z CALM Cheboygan Marina
KPZQ 241055Z 190 7 Rogers City
PRIM4 240950Z 200 8 15 Presque Isle Light
KAPN 241054Z 180 6 Alpena Guard Base
APNM4 241050Z 240 11 13 Alpena Harbor Light
TBIM4 241030Z 200 13 16 Thunder Bay Island
SPTM4 240950Z 200 3 9 Sturgeon Point Light
KOSC 241055Z 210 6 Oscoda
TAWM4 241040Z 200 11 17 Tawas Point
GSLM4 241040Z 150 10 18 Gravelly Shoals

Lake Michigan

KISQ 241055Z 290 5 Manistique
PNLM4 241030Z 320 5 8 Port Inland
NABM4 241040Z 310 5 7 Naubinway
WSLM4 241030Z 310 8 White Shoal Light
KSJX 241055Z 260 5 St James
KPLN 241054Z 180 4 Pellston
KMGN 241055Z 200 5 Harbor Springs
KCVX 241055Z 220 5 Charlevoix
NMIM4 241028Z 230 1 7 North Manitou Island
GTLM4 241040Z 260 14 21 Grand Traverse Light
KTVC 241053Z 170 3 Traverse City
KFKS 241055Z 260 3 Frankfort
MEEM4 241040Z 90 1 8 Manistee Harbor
LDTM4 241030Z 240 6 8 Ludington
KLDM 241055Z 240 8 Ludington Airport


000
ASUS43 KDTX 241110
RWRMI
MICHIGAN HOURLY REGIONAL WEATHER ROUNDUP
NATIONAL WEATHER SERVICE DETROIT/PONTIAC MI
600 AM EST MON JAN 24 2022

NOTE: "FAIR" INDICATES FEW OR NO CLOUDS BELOW 12,000 FEET WITH NO
SIGNIFICANT WEATHER AND/OR OBSTRUCTION TO VISIBILITY.

MIZ047>049-052>055-059>063-066>070-074>076-081>083-241200-
SOUTHEAST LOWER MICHIGAN

CITY SKY/WX TMP DP RH WIND PRES REMARKS
ADRIAN CLOUDY 12 7 80 S5 29.79F WCI 4
ALMA LGT SNOW 17 14 88 S9 29.71F WCI 5
ANN ARBOR CLOUDY 11 5 77 S5 29.79F WCI 3
BAD AXE CLOUDY 15 8 73 S12 29.75F WCI 2
CARO CLOUDY 15 7 68 S10 29.75F WCI 3
DETROIT CITY CLOUDY 17 7 64 SW10 29.82F WCI 5
DETROIT CLOUDY 13 5 70 S8 29.82F WCI 2
FLINT FLURRIES 15 6 67 S8 29.77F WCI 4
GROSSE ILE CLOUDY 18 6 61 SW7 29.81F WCI 8
HILLSDALE CLOUDY 13 7 77 S6 29.73F WCI 4
HOWELL FLURRIES 15 8 75 S7 29.75F WCI 5

CITY SKY/WX TMP DP RH WIND PRES REMARKS
JACKSON CLOUDY 15 7 70 SE9 29.73F WCI 3
LAMBERTVILLE CLOUDY 14 7 73 S6 29.82F WCI 5
LANSING FLURRIES 17 10 74 S12 29.74F WCI 4
LAPEER CLOUDY 15 7 70 S8 29.77F WCI 4
MASON CLOUDY 15 9 74 S7 29.74F WCI 6
MONROE CLOUDY 14 7 76 S5 29.83S WCI 6
MT. CLEMENS CLOUDY 15 9 74 SW9 29.81F WCI 4
PONTIAC FLURRIES 13 5 70 S7 29.76F WCI 3
PORT HOPE N/A 16 5 62 S7 29.74F WCI 6
PORT HURON CLOUDY 14 9 79 S3 29.82S
TRI CITIES CLOUDY 17 9 70 S12 29.73F WCI 4
MIDLAND FLURRIES 17 10 72 S6 29.72F WCI 9
TROY CLOUDY 14 6 69 S5 29.82F WCI 7
SAGINAW HB CLOUDY 18 9 66 S12 29.75F WCI 5
$$
MIZ043>046-050>051-056>058-064>065-071>073-077>080-241200-
SOUTHWEST LOWER MICHIGAN

CITY SKY/WX TMP DP RH WIND PRES REMARKS
BATTLE CREEK CLOUDY 16 10 77 S10 29.72F WCI 4
BENTON HARBOR LGT SNOW 15 8 73 S7 29.72F WCI 5
BIG RAPIDS LGT SNOW 15 13 91 S3 29.66F
COLDWATER CLOUDY 16 8 71 S8 29.74F WCI 5
FREMONT LGT SNOW 17 14 88 S3 29.67F
HOLLAND LGT SNOW 16 11 80 S10 29.69F WCI 4
GRAND RAPIDS LGT SNOW 17 12 80 S15G23 29.70F WCI 2
IONIA CLOUDY 17 13 85 S10 29.70F WCI 4
KALAMAZOO LGT SNOW 17 11 77 S9 29.72F WCI 6
LUDINGTON LGT SNOW 20 13 75 SW9 29.66F WCI 9
MARSHALL CLOUDY 16 9 76 S8 29.73F WCI 5
MOUNT PLEASANT LGT SNOW 17 12 82 S6 29.70F WCI 8
MUSKEGON LGT SNOW 22 15 75 SW12 29.68F WCI 10
SOUTH HAVEN FLURRIES 14 9 80 S8 29.72F WCI 3
$$
MIZ016>042-241200-
NORTHERN LOWER MICHIGAN

CITY SKY/WX TMP DP RH WIND PRES REMARKS
ALPENA CLOUDY 12 4 70 S7 29.70F WCI 1
BEAVER ISLAND LGT SNOW 15 9 78 W6 29.65F WCI 6
BELLAIRE FLURRIES 15 10 80 S5 29.68F WCI 8
CADILLAC LGT SNOW 15 10 83 S3 29.61F
CHARLEVOIX FLURRIES 18 9 67 SW6 29.64F WCI 10
FRANKFORT FLURRIES 18 11 74 W3 29.66F
GAYLORD CLOUDY 12 5 73 S7 29.62S HAZE WCI 1
GRAYLING CLOUDY 12 9 85 SW5 29.64S WCI 4
HARBOR SPRINGS FLURRIES 15 11 86 S6 29.65F WCI 6
HOUGHTON LAKE FLURRIES 12 7 80 S8 29.66F WCI 0
MANISTEE LGT SNOW 15 12 88 E5 29.66F FOG WCI 8
OSCODA CLOUDY 15 8 72 SW7 29.72F WCI 5
PELLSTON LGT SNOW 15 11 83 S6 29.65F FOG WCI 6
ROGERS CITY CLOUDY 14 6 72 S8 29.68F WCI 2
TRAVERSE CITY FLURRIES 16 11 80 S3 29.66F
$$
MIZ007>008-015-241200-
EASTERN UPPER MICHIGAN

CITY SKY/WX TMP DP RH WIND PRES REMARKS
KINROSS FLURRIES 7 2 80 S3 29.64F
MACKINAC ISLAN LGT SNOW 14 13 98 S5 29.64F WCI 6
NEWBERRY LGT SNOW 6 3 86 SW5 29.63S WCI -2
S. S. MARIE FLURRIES 9 2 73 CALM 29.63F
MUNISING N/A 7 -3 64 SE3 29.64S
$$
MIZ004>006-011>014-085-241200-
CENTRAL UPPER MICHIGAN

CITY SKY/WX TMP DP RH WIND PRES REMARKS
MANISTIQUE CLOUDY 8 -2 63 W6 29.65F WCI -2
ESCANABA FLURRIES 7 1 76 W5 29.67F WCI -2
MENOMINEE LGT SNOW 7 4 87 CALM 29.68F FOG
SAWYER-GWINN CLOUDY 5 -1 77 W3 29.60R
$$
MIZ001>003-009>011-084-241200-
WESTERN UPPER MICHIGAN

CITY SKY/WX TMP DP RH WIND PRES REMARKS
IRON MOUNTAIN LGT SNOW 5 -2 72 CALM 29.60F
HOUGHTON LGT SNOW 8 3 80 W6 29.60S WCI -2
COPPER HARBOR N/A 14 8 77 N13 29.63S WCI 0
IRONWOOD FLURRIES 3 -2 79 CALM 29.64R
$$

ABBREVIATIONS USED IN REMARKS
TC - TEMPERATURE IN CELSIUS
WCI - WIND CHILL INDEX
HX - HEAT INDEX
VSB - VISIBILITY




000
ASUS63 KAPX 240210
RTPAPX


Eastern Upper/Northern Lower Michigan Temperature and Precip Summary
National Weather Service Gaylord MI
910 PM EST Sun Jan 23 2022

18 hour High/Low Temperature ending 7 pm EST
24 hour Precipitation/Snowfall ending 7 pm EST
Snow Depth Observed at 7 pm EST

.BR APX 0123 ES DH19/TAIRZS/TAIRZI/PPDRZZ/SFDRZZ/SDIRZZ
:..................................................................
: MAX MIN 24 HR SNOW SNOW
:ID LOCATION TEMP TEMP PRECIP FALL DEPTH
:..................................................................
ANJ : Sault Ste Marie : 14 / 0 / 0.16 / 1.4 / 27
APN : Alpena : 18 / 2 / 0.02 / 0.4 / 6
HTL : Houghton Lake : 15 / 8 / T / T / 5
PLN : Pellston : 16 / -10 / M / /
TVC : Traverse City : 19 / 10 / M / /
GLR : Gaylord : 15 / 8 / M / /
.END

Cooperative Observations
Temperature/Precipitation/Snowfall values are for 24 hour period
ending 7 pm EST. Snow Depth is observed at 7 pm EST.
...................................................................
OBS MAX MIN SNOW SNOW
ID LOCATION TIME TEMP TEMP PCPN FALL DEPTH
...................................................................
MAPM4: Maple City 1E :DH1830/ 19 / 12 / 0.04 / 0.5 /11.0
ONAM4: Onaway 4N :DH1800/ 17 / -2 / 0.00 / 0.0 / 7.0

These data are preliminary and have not undergone final quality
control by the National Centers for Environmental Information.
Therefore...these data are subject to revision. Final
and certified climate data can be accessed at www.ncdc.noaa.gov.

&&

The following are supplemental temperature and precipitation data.
This includes data which are received from non-National Weather
Service maintained observing systems...as well as reports from
public weather spotters. Data is only partially quality controlled
and is not suitable for official climatological records.

.BR APX 0123 ES DH19/TAIRZS/TAIRZI
:
:Automated Temperature Data--18 hr High/Low ending 7 pm EST
:..................................................................
: MAX MIN
:ID LOCATION TEMP TEMP
:..................................................................
:
ERY : Newberry : 15 / 3
CIU : Kinross : 18 / -1
MCD : Mackinac Island : 14 / 4
DRM : Drummond Island : 14 / 0
SJX : Beaver Island : 16 / 10
SLH : Cheboygan : 16 / 5
PZQ : Rogers City : 17 / 11
CVX : Charlevoix : 18 / 15
MGN : Harbor Springs : 16 / 3
ACB : Bellaire : 18 / 13
FKS : Frankfort : 18 / 15
MBL : Manistee : 19 / 14
CAD : Cadillac : 17 / -1
Y31 : West Branch : 17 / 5
OSC : Oscoda : 16 / 6
LDM : Ludington : 20 / 15
RQB : Big Rapids : 19 / 8
MOP : Mount Pleasant : 20 / 11
IKW : Midland : 20 / 12
.END

U.S. Forest Service Remote Automated Weather Stations (RAWS)
Data is only partially quality controlled
18 hour High/Low Temperature ending 7 pm EST
Minimum Relative Humidity over past 18 hours
12/24 hour Precipitation ending 7 pm EST
...................................................................
MAX MIN MIN 12 HR 24 HR
ID LOCATION TEMP TEMP RH PRECIP PRECIP
...................................................................
AGRM4: Alger RAWS : 22 / 2 / 39 / 0.00 / 0.00
ATAM4: Atlanta RAWS : 18 / -6 / 49 / M / M
BCYM4: Barton City RAWS : 17 / 1 / 43 / 0.00 / 0.00
GYGM4: Grayling RAWS : 15 / 6 / 53 / 0.00 / 0.00
INDM4: Indian River RAWS : 21 / -8 / 41 / 0.00 / 0.00
MMOM4: Mio RAWS : 17 / 2 / 46 / 0.00 / 0.00
NMIM4: N Manitou Island : 17 / 14 / 47 / 0.00 / 0.00
RACM4: Raco RAWS : 14 / 0 / 67 / 0.00 / 0.00
REXM4: Rexton RAWS : 16 / -2 / 65 / 0.00 / 0.00
RSCM4: Roscommon RAWS : 15 / 1 / M / 0.00 / 0.00
RYDM4: Rudyard RAWS : 14 / 0 / 54 / 0.00 / 0.00
SBDM4: The Bear RAWS : 18 / 14 / 51 / 0.00 / 0.00
SCKM4: Silver Creek RAWS : 19 / 5 / 44 / 0.01 / 0.01
WLLM4: Wellston RAWS : 20 / 7 / 49 / 0.00 / 0.00

The following are preicpitation reports received by the National
Weather Service in Gaylord...valid for the time period ending
around 7 pm EST. All reports have been recorded in inches.

Spotter reports from Eastern Upper and Northern Lower Michigan:

WATER TIME SNOW
LOCATION RAIN SNOW EQUIV PERIOD DEPTH

None reported.

$$